User: anonymous   Login
Location: Pilipovskiye Korichintsy
(49.1833°N, 27.4667°E)
Time: 23:10:03
(UTC+00:00)
Language:

Cosmos 1190 Rocket - Orbit

View from above orbital plane
View from above orbital plane
View from above satellite
View from above satellite

Ground track
Ground track

The orbit data is extracted from the following two-line orbital elements,

1 11870U 80056B   20273.42667220 +.00000026 +00000-0 +17609-4 0  9994
2 11870 074.0538 163.3024 0016413 181.6296 178.4807 14.36982211083343
Epoch (UTC): 29 September 2020 10:14:24
Eccentricity: 0.0016413
inclination: 74.0538°
perigee height: 757 km
apogee height: 780 km
right ascension of ascending node: 163.3024°
argument of perigee: 181.6296°
revolutions per day: 14.36982211
mean anomaly at epoch: 178.4807°
orbit number at epoch: 8334

The dashed part of the orbit path shows where the satellite is in the earth's shadow,  

DLR